Flag for Mexico Weather past 2 weeks in Guadalajara, Jalisco, Mexico

Now
52 °F

Passing clouds.


Feels Like: 52 °F
Forecast: 50 / 75 °F
Wind: No wind

Location: Don Miguel / Guadalaj

Current Time: Dec 18, 2014 at 7:50:44 AM

Latest Report: Dec 18, 2014 at 6:50 AM


Visibility: 8 mi

Pressure: 30.21 "Hg

Humidity: 82%

Dew point: 46 °F

Location of GuadalajaraLocation

Historic Weather in Guadalajara — Graph

°F

Guadalajara temperature yesterday

Maximum temperature yesterday: 77 °F (at 12:55 PM)
Minimum temperature yesterday: 45 °F (at 6:53 AM)
Average temperature yesterday: 60 °F

Past Weeks' High & Low Weather Summary

 TemperatureHumidityPressure
High81 °F (Dec 5, 3:50 PM)100% (Dec 14, 9:13 AM)30.35 "Hg (Dec 14, 9:13 AM)
Low34 °F (Dec 14, 9:13 AM)20% (Dec 4, 2:46 PM)29.84 "Hg (Dec 14, 2:51 PM)
Average60 °F62%30.14 "Hg
* Reported Dec 3 6:47 AM — Dec 18 6:50 AM, Guadalajara, Weather by CustomWeather, © 2014

Note: Actual official high and low records may vary slightly from our data, if they occured in-between our weather recording intervals... More about our weather records

Advertising

Guadalajara weather history for previous 24 hours

 ConditionsComfort  
Time TempWeatherWind HumidityBarometerVisibility
6:50 AM
Dec 18
52 °FPassing clouds.No wind82%30.21 "Hg8 mi
5:59 AM52 °FPartly cloudy.No wind77%29.94 "Hg8 mi
4:56 AM52 °FPartly cloudy.No wind77%30.18 "Hg8 mi
3:56 AM55 °FPartly cloudy.No wind72%30.19 "Hg8 mi
2:55 AM57 °FPartly cloudy.No wind63%29.88 "Hg8 mi
1:44 AM57 °FPartly cloudy.No wind72%30.21 "Hg8 mi
12:54 AM57 °FPartly cloudy.No wind67%30.22 "Hg8 mi
11:45 PM
Dec 17
59 °FPartly cloudy.3 mph63%29.94 "Hg8 mi
10:57 PM59 °FPartly cloudy.No wind63%30.23 "Hg10 mi
9:49 PM59 °FPassing clouds.3 mph55%30.22 "Hg10 mi
8:51 PM61 °FPassing clouds.3 mph52%30.01 "Hg10 mi
7:50 PM61 °FPassing clouds.5 mph52%30.20 "Hg10 mi
6:50 PM66 °FPassing clouds.3 mph40%30.18 "Hg10 mi
4:50 PM75 °FBroken clouds.10 mph29%30.14 "Hg10 mi
3:47 PM77 °FBroken clouds.5 mph30%30.13 "Hg10 mi
2:50 PM77 °FScattered clouds.12 mph28%29.89 "Hg10 mi
1:48 PM77 °FScattered clouds.7 mph30%30.18 "Hg10 mi
12:55 PM77 °FScattered clouds.3 mph34%30.22 "Hg10 mi
11:45 AM72 °FScattered clouds.No wind47%30.01 "Hg8 mi
10:48 AM68 °FScattered clouds.5 mph56%30.29 "Hg7 mi
9:58 AM63 °FScattered clouds.No wind64%30.29 "Hg7 mi
8:50 AM55 °FScattered clouds.No wind82%30.07 "Hg7 mi
7:46 AM46 °FScattered clouds.No wind93%30.28 "Hg7 mi
Weather by CustomWeather, © 2014

See weather overviewHow to use our weather pages